| time (UTC) | temp F | wind direction | speed knots | gust knots | rain 1hr in | rain 24hr in | rain mn in | humidity % | barometer mb |
| 20260508025016 | 56 | 225 | 1.7 | 5.2 | 0.00 | 0.16 | 0.16 | 69 | 1009.5 |
| 20260508024515 | 56 | 225 | 3.5 | 8.7 | 0.00 | 0.16 | 0.16 | 68 | 1009.5 |
| 20260508024016 | 57 | 225 | 3.5 | 7.8 | 0.00 | 0.16 | 0.16 | 68 | 1009.5 |
| 20260508023516 | 57 | 203 | 1.7 | 5.2 | 0.00 | 0.16 | 0.16 | 67 | 1009.4 |
| 20260508023015 | 57 | 225 | 0.9 | 3.5 | 0.00 | 0.16 | 0.16 | 67 | 1009.4 |
| 20260508022515 | 58 | 225 | 1.7 | 7.0 | 0.00 | 0.16 | 0.16 | 66 | 1009.4 |
| 20260508022016 | 58 | 0.0 | 2.6 | 0.00 | 0.16 | 0.16 | 65 | 1009.4 | |
| 20260508021515 | 58 | 248 | 0.9 | 3.5 | 0.00 | 0.16 | 0.16 | 63 | 1009.3 |
| 20260508021015 | 59 | 0.0 | 0.0 | 0.00 | 0.16 | 0.16 | 62 | 1009.3 | |
| 20260508020555 | 59 | 0.0 | 0.9 | 0.00 | 0.16 | 0.16 | 60 | 1009.2 | |
| 20260508020136 | 59 | 225 | 0.9 | 5.2 | 0.00 | 0.16 | 0.16 | 59 | 1009.2 |
| 20260508015515 | 60 | 225 | 0.9 | 2.6 | 0.00 | 0.16 | 0.16 | 57 | 1009.2 |
| 20260508015015 | 60 | 225 | 0.9 | 3.5 | 0.00 | 0.16 | 0.16 | 55 | 1009.1 |
| 20260508014516 | 61 | 0.0 | 0.9 | 0.00 | 0.16 | 0.16 | 52 | 1009.0 | |
| 20260508014017 | 61 | 0.0 | 2.6 | 0.00 | 0.16 | 0.16 | 50 | 1009.0 | |
| 20260508013515 | 61 | 113 | 0.9 | 2.6 | 0.00 | 0.16 | 0.16 | 47 | 1009.0 |
| 20260508013017 | 62 | 68 | 0.9 | 4.3 | 0.00 | 0.16 | 0.16 | 42 | 1009.1 |
| 20260508012517 | 62 | 45 | 1.7 | 4.3 | 0.00 | 0.16 | 0.16 | 36 | 1009.1 |
| 20260508012018 | 62 | 338 | 1.7 | 4.3 | 0.00 | 0.16 | 0.16 | 36 | 1009.0 |
| 20260508011518 | 62 | 0 | 0.9 | 4.3 | 0.00 | 0.16 | 0.16 | 37 | 1009.0 |
| 20260508011037 | 62 | 23 | 0.9 | 5.2 | 0.00 | 0.16 | 0.16 | 37 | 1008.9 |
| 20260508010538 | 62 | 338 | 0.9 | 7.0 | 0.00 | 0.16 | 0.16 | 37 | 1008.8 |
| 20260508010037 | 62 | 0 | 0.9 | 3.5 | 0.00 | 0.16 | 0.16 | 37 | 1008.8 |
| 20260508005517 | 62 | 0 | 0.9 | 4.3 | 0.00 | 0.16 | 0.16 | 37 | 1008.6 |
| 20260508005037 | 62 | 45 | 0.9 | 2.6 | 0.00 | 0.16 | 0.16 | 36 | 1008.7 |
| 20260508004517 | 62 | 0.0 | 2.6 | 0.00 | 0.16 | 0.16 | 36 | 1008.6 | |
| 20260508004017 | 62 | 0.0 | 1.7 | 0.00 | 0.16 | 0.16 | 36 | 1008.6 | |
| 20260508003517 | 62 | 338 | 0.9 | 3.5 | 0.00 | 0.16 | 0.16 | 35 | 1008.6 |
| 20260508003037 | 62 | 0 | 1.7 | 4.3 | 0.00 | 0.16 | 0.16 | 34 | 1008.4 |
| 20260508002518 | 62 | 0 | 1.7 | 6.1 | 0.00 | 0.16 | 0.16 | 34 | 1008.4 |
| 20260508002017 | 62 | 45 | 0.9 | 3.5 | 0.00 | 0.16 | 0.16 | 34 | 1008.3 |
| 20260508001538 | 62 | 23 | 1.7 | 4.3 | 0.00 | 0.16 | 0.16 | 34 | 1008.2 |
| 20260508001017 | 63 | 0 | 1.7 | 7.8 | 0.00 | 0.16 | 0.16 | 34 | 1008.2 |
| 20260508000518 | 63 | 45 | 0.9 | 5.2 | 0.00 | 0.16 | 0.16 | 34 | 1008.2 |
| 20260508000018 | 63 | 45 | 0.9 | 3.5 | 0.00 | 0.16 | 0.16 | 33 | 1008.1 |
| 20260507235517 | 63 | 23 | 0.9 | 5.2 | 0.00 | 0.16 | 0.16 | 33 | 1008.1 |
| 20260507235018 | 63 | 45 | 0.9 | 5.2 | 0.00 | 0.16 | 0.16 | 33 | 1008.1 |
| 20260507234518 | 64 | 338 | 1.7 | 6.1 | 0.00 | 0.16 | 0.16 | 33 | 1008.1 |
| 20260507234017 | 64 | 45 | 1.7 | 5.2 | 0.00 | 0.16 | 0.16 | 33 | 1008.0 |
| 20260507233519 | 64 | 338 | 2.6 | 7.0 | 0.00 | 0.16 | 0.16 | 33 | 1007.9 |
| 20260507233037 | 64 | 0 | 1.7 | 6.1 | 0.00 | 0.16 | 0.16 | 32 | 1007.7 |
| 20260507232517 | 65 | 338 | 1.7 | 7.0 | 0.00 | 0.16 | 0.16 | 33 | 1007.7 |
| 20260507232017 | 65 | 338 | 1.7 | 5.2 | 0.00 | 0.16 | 0.16 | 33 | 1007.8 |
| 20260507231517 | 65 | 338 | 1.7 | 6.1 | 0.00 | 0.16 | 0.16 | 33 | 1007.8 |
| 20260507231017 | 65 | 45 | 1.7 | 7.8 | 0.00 | 0.16 | 0.16 | 32 | 1007.8 |
| 20260507230517 | 65 | 23 | 1.7 | 4.3 | 0.00 | 0.16 | 0.16 | 32 | 1007.8 |
| 20260507230017 | 65 | 0 | 1.7 | 7.0 | 0.00 | 0.16 | 0.16 | 32 | 1007.8 |
| 20260507225518 | 65 | 338 | 2.6 | 7.8 | 0.00 | 0.16 | 0.16 | 32 | 1007.7 |
| 20260507225017 | 65 | 338 | 2.6 | 5.2 | 0.00 | 0.16 | 0.16 | 31 | 1007.7 |
| 20260507224517 | 65 | 315 | 1.7 | 5.2 | 0.00 | 0.16 | 0.16 | 32 | 1007.7 |
| 20260507224017 | 65 | 338 | 1.7 | 5.2 | 0.00 | 0.16 | 0.16 | 31 | 1007.7 |
| 20260507223518 | 66 | 315 | 2.6 | 7.8 | 0.00 | 0.16 | 0.16 | 30 | 1007.7 |
| 20260507223017 | 66 | 315 | 2.6 | 7.8 | 0.00 | 0.16 | 0.16 | 30 | 1007.7 |
| 20260507222517 | 66 | 338 | 3.5 | 7.0 | 0.00 | 0.16 | 0.16 | 30 | 1007.7 |
| 20260507222018 | 66 | 315 | 3.5 | 8.7 | 0.00 | 0.16 | 0.16 | 31 | 1007.6 |
| 20260507221517 | 67 | 315 | 3.5 | 10.4 | 0.00 | 0.16 | 0.16 | 31 | 1007.6 |
| 20260507221018 | 67 | 338 | 3.5 | 7.8 | 0.00 | 0.16 | 0.16 | 31 | 1007.8 |
| 20260507220517 | 67 | 338 | 2.6 | 8.7 | 0.00 | 0.16 | 0.16 | 30 | 1007.7 |
| 20260507220017 | 67 | 0 | 3.5 | 7.0 | 0.00 | 0.16 | 0.16 | 31 | 1007.7 |
| 20260507215518 | 67 | 0 | 1.7 | 7.0 | 0.00 | 0.16 | 0.16 | 30 | 1007.7 |
| 20260507215017 | 67 | 338 | 2.6 | 7.8 | 0.00 | 0.16 | 0.16 | 31 | 1007.6 |
| 20260507214517 | 67 | 0 | 3.5 | 8.7 | 0.00 | 0.16 | 0.16 | 30 | 1007.6 |
| 20260507214017 | 67 | 45 | 2.6 | 7.0 | 0.00 | 0.16 | 0.16 | 30 | 1007.7 |
| 20260507213517 | 67 | 0 | 2.6 | 6.1 | 0.00 | 0.16 | 0.16 | 31 | 1007.7 |
| 20260507213017 | 67 | 23 | 1.7 | 9.6 | 0.00 | 0.16 | 0.16 | 31 | 1007.6 |
| 20260507212538 | 67 | 0 | 3.5 | 7.8 | 0.00 | 0.16 | 0.16 | 31 | 1007.5 |
| 20260507212017 | 67 | 338 | 1.7 | 4.3 | 0.00 | 0.16 | 0.16 | 31 | 1007.5 |
| 20260507211517 | 67 | 0 | 4.3 | 8.7 | 0.00 | 0.16 | 0.16 | 30 | 1007.4 |
| 20260507211017 | 67 | 293 | 1.7 | 6.1 | 0.00 | 0.16 | 0.16 | 31 | 1007.4 |
| 20260507210517 | 67 | 338 | 0.9 | 3.5 | 0.00 | 0.16 | 0.16 | 31 | 1007.4 |
| 20260507210017 | 66 | 270 | 1.7 | 5.2 | 0.00 | 0.16 | 0.16 | 32 | 1007.3 |
| 20260507205517 | 66 | 0 | 1.7 | 7.0 | 0.00 | 0.16 | 0.16 | 31 | 1007.4 |
| 20260507205017 | 67 | 338 | 3.5 | 7.8 | 0.00 | 0.16 | 0.16 | 31 | 1007.5 |
| 20260507204517 | 67 | 45 | 1.7 | 4.3 | 0.00 | 0.16 | 0.16 | 30 | 1007.5 |
| 20260507204018 | 67 | 45 | 3.5 | 8.7 | 0.00 | 0.16 | 0.16 | 29 | 1007.5 |
| 20260507203517 | 68 | 315 | 3.5 | 7.8 | 0.00 | 0.16 | 0.16 | 31 | 1007.5 |
| 20260507203017 | 67 | 0 | 2.6 | 8.7 | 0.00 | 0.16 | 0.16 | 30 | 1007.5 |
| 20260507202517 | 67 | 0 | 1.7 | 7.0 | 0.00 | 0.16 | 0.16 | 31 | 1007.6 |
| 20260507202059 | 67 | 45 | 2.6 | 7.0 | 0.00 | 0.16 | 0.16 | 30 | 1007.5 |
| 20260507201518 | 67 | 23 | 2.6 | 7.8 | 0.00 | 0.16 | 0.16 | 31 | 1007.6 |
| 20260507201039 | 67 | 0 | 2.6 | 7.0 | 0.00 | 0.16 | 0.16 | 30 | 1007.7 |
| 20260507200517 | 67 | 338 | 2.6 | 8.7 | 0.00 | 0.16 | 0.16 | 30 | 1007.7 |
| 20260507200017 | 67 | 315 | 1.7 | 7.8 | 0.00 | 0.16 | 0.16 | 30 | 1007.6 |
| 20260507195517 | 67 | 338 | 3.5 | 8.7 | 0.00 | 0.16 | 0.16 | 29 | 1007.7 |
| 20260507195017 | 68 | 338 | 2.6 | 7.0 | 0.00 | 0.16 | 0.16 | 30 | 1007.7 |
| 20260507194518 | 67 | 338 | 2.6 | 6.1 | 0.00 | 0.16 | 0.16 | 31 | 1007.8 |
| 20260507194037 | 67 | 338 | 3.5 | 7.8 | 0.00 | 0.16 | 0.16 | 30 | 1007.9 |
| 20260507193537 | 67 | 0 | 2.6 | 8.7 | 0.00 | 0.16 | 0.16 | 31 | 1007.8 |
| 20260507193016 | 67 | 0 | 2.6 | 7.0 | 0.00 | 0.16 | 0.16 | 30 | 1007.9 |
| 20260507192517 | 67 | 45 | 2.6 | 8.7 | 0.00 | 0.16 | 0.16 | 31 | 1007.9 |
| 20260507192017 | 67 | 315 | 3.5 | 7.8 | 0.00 | 0.16 | 0.16 | 31 | 1008.0 |
| 20260507191517 | 67 | 248 | 4.3 | 11.3 | 0.00 | 0.16 | 0.16 | 31 | 1008.0 |
| 20260507191016 | 67 | 270 | 6.1 | 12.2 | 0.00 | 0.16 | 0.16 | 30 | 1008.1 |
| 20260507190517 | 67 | 0 | 4.3 | 11.3 | 0.00 | 0.16 | 0.16 | 31 | 1008.1 |
| 20260507190017 | 67 | 338 | 3.5 | 11.3 | 0.00 | 0.16 | 0.16 | 30 | 1008.3 |
| 20260507185517 | 67 | 0 | 2.6 | 7.8 | 0.00 | 0.16 | 0.16 | 32 | 1008.3 |
| 20260507185017 | 67 | 0 | 2.6 | 7.0 | 0.00 | 0.16 | 0.16 | 31 | 1008.4 |
| 20260507184517 | 66 | 315 | 2.6 | 6.1 | 0.00 | 0.16 | 0.16 | 31 | 1008.4 |
| 20260507184037 | 66 | 338 | 2.6 | 7.8 | 0.00 | 0.16 | 0.16 | 31 | 1008.4 |
| 20260507183517 | 66 | 315 | 3.5 | 9.6 | 0.00 | 0.16 | 0.16 | 31 | 1008.4 |
| 20260507183017 | 66 | 45 | 2.6 | 7.8 | 0.00 | 0.16 | 0.16 | 31 | 1008.5 |
| 20260507182517 | 66 | 315 | 2.6 | 7.0 | 0.00 | 0.16 | 0.16 | 32 | 1008.6 |
| 20260507182037 | 65 | 293 | 2.6 | 6.1 | 0.00 | 0.16 | 0.16 | 32 | 1008.6 |
| 20260507181517 | 65 | 0 | 4.3 | 8.7 | 0.00 | 0.16 | 0.16 | 31 | 1008.8 |
| 20260507181017 | 65 | 293 | 3.5 | 8.7 | 0.00 | 0.16 | 0.16 | 31 | 1008.8 |
| 20260507180517 | 65 | 315 | 4.3 | 9.6 | 0.00 | 0.16 | 0.16 | 31 | 1009.0 |
| 20260507180018 | 65 | 338 | 3.5 | 7.0 | 0.00 | 0.16 | 0.16 | 32 | 1009.0 |
| 20260507175538 | 65 | 338 | 4.3 | 9.6 | 0.00 | 0.16 | 0.16 | 31 | 1009.1 |
| 20260507175017 | 65 | 338 | 2.6 | 7.0 | 0.00 | 0.16 | 0.16 | 31 | 1009.2 |
| 20260507174517 | 65 | 0 | 3.5 | 8.7 | 0.00 | 0.16 | 0.16 | 32 | 1009.3 |
| 20260507174017 | 65 | 0 | 3.5 | 10.4 | 0.00 | 0.16 | 0.16 | 32 | 1009.2 |
| 20260507173538 | 65 | 0 | 4.3 | 10.4 | 0.00 | 0.16 | 0.16 | 32 | 1009.3 |
| 20260507173017 | 64 | 270 | 2.6 | 6.1 | 0.00 | 0.16 | 0.16 | 32 | 1009.2 |
| 20260507172516 | 64 | 0 | 4.3 | 8.7 | 0.00 | 0.16 | 0.16 | 31 | 1009.3 |
| 20260507172018 | 64 | 0 | 2.6 | 9.6 | 0.00 | 0.17 | 0.16 | 31 | 1009.4 |
| 20260507171516 | 64 | 315 | 3.5 | 7.0 | 0.00 | 0.17 | 0.16 | 32 | 1009.5 |
| 20260507171017 | 64 | 0 | 2.6 | 7.8 | 0.00 | 0.17 | 0.16 | 32 | 1009.8 |
| 20260507170516 | 64 | 315 | 5.2 | 10.4 | 0.00 | 0.17 | 0.16 | 31 | 1009.6 |
| 20260507170016 | 64 | 293 | 3.5 | 10.4 | 0.00 | 0.17 | 0.16 | 32 | 1009.7 |
| 20260507165517 | 63 | 315 | 3.5 | 7.8 | 0.00 | 0.17 | 0.16 | 32 | 1009.8 |
| 20260507165018 | 63 | 315 | 4.3 | 9.6 | 0.00 | 0.17 | 0.16 | 31 | 1009.9 |
| 20260507164536 | 63 | 338 | 3.5 | 9.6 | 0.00 | 0.17 | 0.16 | 32 | 1010.0 |
| 20260507164017 | 63 | 315 | 3.5 | 7.8 | 0.00 | 0.17 | 0.16 | 33 | 1010.0 |
| 20260507163517 | 63 | 315 | 4.3 | 9.6 | 0.00 | 0.17 | 0.16 | 33 | 1010.0 |
| 20260507163016 | 63 | 338 | 4.3 | 8.7 | 0.00 | 0.18 | 0.16 | 32 | 1010.0 |
| 20260507162558 | 63 | 293 | 4.3 | 9.6 | 0.00 | 0.18 | 0.16 | 33 | 1010.1 |
| 20260507162016 | 62 | 315 | 4.3 | 10.4 | 0.00 | 0.18 | 0.16 | 32 | 1010.2 |
| 20260507161516 | 62 | 315 | 4.3 | 10.4 | 0.00 | 0.18 | 0.16 | 34 | 1010.3 |
| 20260507161017 | 62 | 0 | 4.3 | 10.4 | 0.00 | 0.18 | 0.16 | 33 | 1010.4 |
| 20260507160536 | 62 | 315 | 4.3 | 10.4 | 0.00 | 0.18 | 0.16 | 34 | 1010.5 |
| 20260507160036 | 62 | 315 | 5.2 | 9.6 | 0.00 | 0.18 | 0.16 | 35 | 1010.6 |
| 20260507155516 | 62 | 315 | 3.5 | 9.6 | 0.00 | 0.18 | 0.16 | 37 | 1010.7 |
| 20260507155016 | 62 | 338 | 2.6 | 6.1 | 0.00 | 0.18 | 0.16 | 38 | 1010.7 |
| 20260507154516 | 61 | 338 | 3.5 | 8.7 | 0.00 | 0.18 | 0.16 | 37 | 1010.7 |
| 20260507154017 | 61 | 315 | 4.3 | 10.4 | 0.00 | 0.18 | 0.16 | 37 | 1010.8 |
| 20260507153517 | 61 | 315 | 4.3 | 8.7 | 0.00 | 0.18 | 0.16 | 37 | 1010.8 |
| 20260507153016 | 60 | 0 | 3.5 | 9.6 | 0.00 | 0.18 | 0.16 | 38 | 1010.9 |
| 20260507152517 | 60 | 315 | 4.3 | 11.3 | 0.00 | 0.18 | 0.16 | 39 | 1010.8 |
| 20260507152038 | 60 | 315 | 5.2 | 12.2 | 0.00 | 0.18 | 0.16 | 39 | 1011.0 |
| 20260507151516 | 60 | 315 | 5.2 | 12.2 | 0.00 | 0.18 | 0.16 | 37 | 1011.0 |
| 20260507151037 | 60 | 315 | 5.2 | 11.3 | 0.00 | 0.18 | 0.16 | 38 | 1011.0 |
| 20260507150516 | 60 | 293 | 3.5 | 9.6 | 0.00 | 0.18 | 0.16 | 39 | 1011.0 |
| 20260507150016 | 60 | 315 | 5.2 | 10.4 | 0.00 | 0.18 | 0.16 | 38 | 1011.0 |
| 20260507145516 | 60 | 315 | 4.3 | 8.7 | 0.00 | 0.18 | 0.16 | 39 | 1011.0 |
| 20260507145037 | 59 | 0 | 5.2 | 10.4 | 0.00 | 0.18 | 0.16 | 38 | 1011.1 |
| 20260507144516 | 59 | 338 | 5.2 | 12.2 | 0.00 | 0.18 | 0.16 | 40 | 1011.2 |
| 20260507144016 | 59 | 315 | 4.3 | 10.4 | 0.00 | 0.18 | 0.16 | 44 | 1011.2 |
| 20260507143516 | 59 | 0 | 4.3 | 11.3 | 0.00 | 0.18 | 0.16 | 48 | 1011.2 |
| 20260507143017 | 58 | 0 | 4.3 | 9.6 | 0.00 | 0.18 | 0.16 | 50 | 1011.3 |
| 20260507142538 | 58 | 315 | 5.2 | 10.4 | 0.00 | 0.18 | 0.16 | 53 | 1011.2 |
| 20260507142038 | 58 | 0 | 4.3 | 8.7 | 0.00 | 0.18 | 0.16 | 55 | 1011.2 |
| 20260507141516 | 58 | 0 | 3.5 | 7.8 | 0.00 | 0.18 | 0.16 | 60 | 1011.2 |
| 20260507141016 | 57 | 315 | 4.3 | 10.4 | 0.00 | 0.18 | 0.16 | 62 | 1011.2 |
| 20260507140516 | 57 | 315 | 5.2 | 9.6 | 0.00 | 0.18 | 0.16 | 63 | 1011.2 |
| 20260507140017 | 57 | 338 | 3.5 | 9.6 | 0.00 | 0.18 | 0.16 | 64 | 1011.2 |
| 20260507135516 | 56 | 315 | 1.7 | 6.1 | 0.00 | 0.18 | 0.16 | 67 | 1011.1 |
| 20260507135018 | 56 | 315 | 4.3 | 9.6 | 0.00 | 0.18 | 0.16 | 66 | 1011.2 |
| 20260507134516 | 56 | 315 | 3.5 | 7.8 | 0.00 | 0.18 | 0.16 | 68 | 1011.2 |
| 20260507134016 | 55 | 315 | 3.5 | 8.7 | 0.00 | 0.18 | 0.16 | 69 | 1011.2 |
| 20260507133516 | 55 | 338 | 3.5 | 8.7 | 0.00 | 0.18 | 0.16 | 71 | 1011.2 |
| 20260507133017 | 55 | 315 | 3.5 | 8.7 | 0.00 | 0.18 | 0.16 | 72 | 1011.2 |
| 20260507132516 | 55 | 338 | 3.5 | 9.6 | 0.00 | 0.18 | 0.16 | 73 | 1011.1 |
| 20260507132016 | 54 | 270 | 3.5 | 7.0 | 0.00 | 0.18 | 0.16 | 74 | 1011.1 |
| 20260507131517 | 54 | 293 | 3.5 | 7.0 | 0.00 | 0.18 | 0.16 | 74 | 1011.2 |
| 20260507131017 | 54 | 315 | 3.5 | 7.0 | 0.00 | 0.18 | 0.16 | 75 | 1011.3 |
| 20260507130516 | 54 | 315 | 3.5 | 8.7 | 0.00 | 0.18 | 0.16 | 75 | 1011.3 |
| 20260507130016 | 53 | 315 | 3.5 | 9.6 | 0.00 | 0.18 | 0.16 | 75 | 1011.4 |
| 20260507125516 | 53 | 315 | 4.3 | 9.6 | 0.00 | 0.18 | 0.16 | 75 | 1011.4 |
| 20260507125038 | 53 | 338 | 4.3 | 8.7 | 0.00 | 0.18 | 0.16 | 75 | 1011.3 |
| 20260507124516 | 53 | 338 | 4.3 | 11.3 | 0.00 | 0.18 | 0.16 | 76 | 1011.4 |
| 20260507124017 | 53 | 315 | 3.5 | 10.4 | 0.00 | 0.18 | 0.16 | 77 | 1011.2 |
| 20260507123516 | 53 | 315 | 3.5 | 7.0 | 0.00 | 0.18 | 0.16 | 78 | 1011.3 |
| 20260507123016 | 53 | 315 | 3.5 | 8.7 | 0.00 | 0.18 | 0.16 | 78 | 1011.4 |
| 20260507122516 | 52 | 315 | 2.6 | 7.0 | 0.00 | 0.18 | 0.16 | 78 | 1011.4 |
| 20260507122016 | 52 | 315 | 3.5 | 7.8 | 0.00 | 0.18 | 0.16 | 78 | 1011.5 |
| 20260507121517 | 52 | 315 | 2.6 | 7.0 | 0.00 | 0.18 | 0.16 | 79 | 1011.4 |
| 20260507121016 | 52 | 338 | 2.6 | 7.0 | 0.00 | 0.18 | 0.16 | 79 | 1011.4 |
| 20260507120516 | 52 | 338 | 2.6 | 7.8 | 0.00 | 0.18 | 0.16 | 79 | 1011.3 |
| 20260507120016 | 52 | 315 | 2.6 | 7.0 | 0.00 | 0.18 | 0.16 | 79 | 1011.3 |
| 20260507115516 | 52 | 315 | 2.6 | 8.7 | 0.00 | 0.18 | 0.16 | 79 | 1011.0 |
| 20260507115016 | 52 | 315 | 3.5 | 11.3 | 0.00 | 0.18 | 0.16 | 79 | 1011.0 |
| 20260507114516 | 52 | 315 | 3.5 | 8.7 | 0.00 | 0.18 | 0.16 | 80 | 1010.9 |
| 20260507114017 | 52 | 315 | 3.5 | 8.7 | 0.00 | 0.18 | 0.16 | 80 | 1011.0 |
| 20260507113516 | 52 | 315 | 2.6 | 5.2 | 0.00 | 0.18 | 0.16 | 81 | 1010.8 |
| 20260507113037 | 52 | 315 | 1.7 | 5.2 | 0.00 | 0.18 | 0.16 | 81 | 1010.9 |
| 20260507112516 | 52 | 315 | 2.6 | 8.7 | 0.00 | 0.18 | 0.16 | 81 | 1010.7 |
| 20260507112037 | 52 | 315 | 3.5 | 8.7 | 0.00 | 0.18 | 0.16 | 81 | 1010.6 |
| 20260507111516 | 52 | 315 | 4.3 | 10.4 | 0.00 | 0.18 | 0.16 | 81 | 1010.7 |
| 20260507111017 | 52 | 293 | 2.6 | 7.8 | 0.00 | 0.18 | 0.16 | 81 | 1010.6 |
| 20260507110516 | 52 | 315 | 3.5 | 8.7 | 0.00 | 0.18 | 0.16 | 82 | 1010.6 |
| 20260507110016 | 52 | 315 | 2.6 | 7.8 | 0.00 | 0.18 | 0.16 | 82 | 1010.5 |
| 20260507105517 | 52 | 315 | 3.5 | 8.7 | 0.00 | 0.18 | 0.16 | 82 | 1010.4 |
| 20260507105016 | 52 | 315 | 3.5 | 8.7 | 0.00 | 0.18 | 0.16 | 83 | 1010.4 |
| 20260507104536 | 52 | 338 | 1.7 | 6.1 | 0.00 | 0.18 | 0.16 | 84 | 1010.3 |
| 20260507104016 | 52 | 315 | 4.3 | 8.7 | 0.00 | 0.18 | 0.16 | 84 | 1010.3 |
| 20260507103517 | 52 | 315 | 2.6 | 9.6 | 0.00 | 0.18 | 0.16 | 84 | 1010.4 |
| 20260507103037 | 52 | 315 | 2.6 | 7.8 | 0.00 | 0.18 | 0.16 | 84 | 1010.2 |
| 20260507102516 | 52 | 315 | 2.6 | 7.8 | 0.00 | 0.18 | 0.16 | 85 | 1010.0 |
| 20260507102016 | 52 | 315 | 3.5 | 7.8 | 0.00 | 0.18 | 0.16 | 85 | 1010.2 |
| 20260507101516 | 52 | 315 | 2.6 | 7.0 | 0.00 | 0.18 | 0.16 | 85 | 1010.1 |
| 20260507101016 | 51 | 293 | 3.5 | 7.0 | 0.00 | 0.18 | 0.16 | 85 | 1010.0 |
| 20260507100516 | 51 | 315 | 2.6 | 7.8 | 0.00 | 0.18 | 0.16 | 86 | 1009.8 |
| 20260507100016 | 51 | 315 | 2.6 | 5.2 | 0.01 | 0.18 | 0.16 | 86 | 1009.8 |
| 20260507095537 | 51 | 315 | 2.6 | 7.8 | 0.01 | 0.18 | 0.16 | 86 | 1009.8 |
| 20260507095016 | 51 | 293 | 2.6 | 7.8 | 0.01 | 0.18 | 0.16 | 86 | 1009.9 |
| 20260507094516 | 51 | 315 | 3.5 | 7.8 | 0.01 | 0.18 | 0.16 | 87 | 1009.8 |
| 20260507094036 | 51 | 315 | 3.5 | 10.4 | 0.01 | 0.18 | 0.16 | 87 | 1009.6 |
| 20260507093516 | 51 | 315 | 3.5 | 7.8 | 0.01 | 0.18 | 0.16 | 87 | 1009.6 |
| 20260507093016 | 51 | 315 | 2.6 | 8.7 | 0.01 | 0.18 | 0.16 | 87 | 1009.5 |
| 20260507092536 | 51 | 315 | 2.6 | 7.8 | 0.01 | 0.18 | 0.16 | 87 | 1009.7 |
| 20260507092016 | 51 | 338 | 3.5 | 9.6 | 0.01 | 0.18 | 0.16 | 87 | 1009.5 |
| 20260507091517 | 51 | 338 | 3.5 | 8.7 | 0.01 | 0.18 | 0.16 | 87 | 1009.2 |
| 20260507091016 | 51 | 315 | 3.5 | 8.7 | 0.01 | 0.18 | 0.16 | 87 | 1009.4 |
| 20260507090516 | 51 | 315 | 3.5 | 7.8 | 0.01 | 0.18 | 0.16 | 87 | 1009.5 |
| 20260507090017 | 51 | 338 | 3.5 | 8.7 | 0.00 | 0.17 | 0.15 | 87 | 1009.5 |
| 20260507085516 | 51 | 315 | 2.6 | 5.2 | 0.00 | 0.17 | 0.15 | 87 | 1009.6 |
| 20260507085017 | 51 | 315 | 2.6 | 8.7 | 0.00 | 0.17 | 0.15 | 87 | 1009.5 |
| 20260507084516 | 51 | 315 | 4.3 | 13.0 | 0.00 | 0.17 | 0.15 | 86 | 1009.6 |
| 20260507084016 | 52 | 315 | 4.3 | 8.7 | 0.00 | 0.17 | 0.15 | 86 | 1009.8 |
| 20260507083516 | 52 | 315 | 4.3 | 10.4 | 0.00 | 0.17 | 0.15 | 86 | 1009.7 |
| 20260507083016 | 52 | 315 | 3.5 | 8.7 | 0.01 | 0.17 | 0.15 | 86 | 1009.6 |
| 20260507082516 | 51 | 315 | 5.2 | 13.0 | 0.01 | 0.17 | 0.15 | 86 | 1009.6 |
| 20260507082016 | 52 | 315 | 4.3 | 10.4 | 0.01 | 0.17 | 0.15 | 86 | 1009.1 |
| 20260507081558 | 52 | 338 | 5.2 | 8.7 | 0.01 | 0.17 | 0.15 | 86 | 1009.2 |
| 20260507081016 | 52 | 315 | 4.3 | 10.4 | 0.01 | 0.17 | 0.15 | 87 | 1009.6 |
| 20260507080516 | 52 | 315 | 6.1 | 12.2 | 0.01 | 0.17 | 0.15 | 87 | 1009.4 |
| 20260507080016 | 52 | 315 | 6.1 | 11.3 | 0.01 | 0.17 | 0.15 | 87 | 1009.4 |
| 20260507075516 | 52 | 315 | 5.2 | 12.2 | 0.01 | 0.17 | 0.15 | 87 | 1009.2 |
| 20260507075016 | 52 | 338 | 5.2 | 10.4 | 0.02 | 0.17 | 0.15 | 87 | 1009.7 |
| 20260507074536 | 52 | 338 | 5.2 | 11.3 | 0.02 | 0.17 | 0.15 | 87 | 1009.7 |
| 20260507074016 | 52 | 315 | 5.2 | 14.8 | 0.02 | 0.17 | 0.15 | 88 | 1009.5 |
| 20260507073516 | 52 | 315 | 5.2 | 14.8 | 0.03 | 0.17 | 0.15 | 88 | 1009.6 |
| 20260507073016 | 52 | 315 | 6.1 | 9.6 | 0.03 | 0.16 | 0.14 | 88 | 1009.7 |
| 20260507072516 | 52 | 315 | 5.2 | 10.4 | 0.04 | 0.16 | 0.14 | 88 | 1009.7 |
| 20260507072016 | 52 | 315 | 6.1 | 11.3 | 0.06 | 0.16 | 0.14 | 88 | 1009.5 |
| 20260507071515 | 53 | 315 | 5.2 | 11.3 | 0.07 | 0.16 | 0.14 | 88 | 1009.3 |
| 20260507071017 | 53 | 315 | 4.3 | 11.3 | 0.08 | 0.16 | 0.14 | 89 | 1009.5 |
| 20260507070537 | 53 | 315 | 5.2 | 9.6 | 0.09 | 0.16 | 0.14 | 89 | 1009.4 |
| 20260507070016 | 53 | 315 | 5.2 | 12.2 | 0.10 | 0.16 | 0.14 | 89 | 1009.2 |
| 20260507065516 | 53 | 338 | 4.3 | 7.8 | 0.12 | 0.16 | 0.14 | 89 | 1009.5 |
| 20260507065017 | 53 | 315 | 3.5 | 7.8 | 0.13 | 0.15 | 0.13 | 88 | 1009.5 |
| 20260507064515 | 53 | 315 | 3.5 | 8.7 | 0.13 | 0.15 | 0.13 | 88 | 1008.9 |
| 20260507064016 | 53 | 315 | 4.3 | 8.7 | 0.13 | 0.15 | 0.13 | 88 | 1009.1 |
| 20260507063517 | 54 | 315 | 3.5 | 9.6 | 0.12 | 0.14 | 0.12 | 87 | 1008.7 |
| 20260507063016 | 54 | 315 | 3.5 | 8.7 | 0.11 | 0.13 | 0.11 | 86 | 1008.9 |
| 20260507062517 | 54 | 293 | 2.6 | 8.7 | 0.10 | 0.12 | 0.10 | 86 | 1009.7 |
| 20260507062036 | 54 | 315 | 4.3 | 7.8 | 0.08 | 0.10 | 0.08 | 85 | 1009.5 |
| 20260507061515 | 54 | 293 | 3.5 | 8.7 | 0.07 | 0.09 | 0.07 | 84 | 1009.5 |
| 20260507061036 | 55 | 315 | 5.2 | 8.7 | 0.06 | 0.08 | 0.06 | 83 | 1008.9 |
| 20260507060515 | 55 | 315 | 4.3 | 10.4 | 0.05 | 0.07 | 0.05 | 81 | 1008.6 |
| 20260507060015 | 56 | 315 | 3.5 | 8.7 | 0.04 | 0.06 | 0.04 | 80 | 1008.5 |
| 20260507055516 | 56 | 0 | 3.5 | 7.8 | 0.02 | 0.04 | 0.02 | 78 | 1008.8 |
| 20260507055016 | 56 | 315 | 4.3 | 9.6 | 0.00 | 0.02 | 0.00 | 77 | 1008.9 |
| 20260507054535 | 57 | 315 | 4.3 | 8.7 | 0.00 | 0.02 | 0.00 | 76 | 1008.9 |
| 20260507054016 | 57 | 315 | 4.3 | 9.6 | 0.00 | 0.02 | 0.00 | 75 | 1009.0 |
| 20260507053516 | 57 | 315 | 4.3 | 10.4 | 0.00 | 0.02 | 0.00 | 74 | 1008.8 |
| 20260507053015 | 57 | 315 | 4.3 | 9.6 | 0.00 | 0.02 | 0.00 | 74 | 1008.5 |
| 20260507052517 | 57 | 315 | 4.3 | 10.4 | 0.00 | 0.02 | 0.00 | 74 | 1008.3 |
| 20260507052015 | 57 | 315 | 5.2 | 9.6 | 0.00 | 0.02 | 0.00 | 74 | 1008.3 |
| 20260507051529 | 57 | 315 | 3.5 | 7.0 | 0.00 | 0.02 | 0.00 | 73 | 1008.1 |
| 20260507051015 | 57 | 315 | 3.5 | 9.6 | 0.00 | 0.02 | 0.00 | 73 | 1008.3 |
| 20260507050515 | 57 | 315 | 3.5 | 9.6 | 0.00 | 0.02 | 0.00 | 73 | 1008.6 |
| 20260507050015 | 58 | 338 | 4.3 | 9.6 | 0.00 | 0.02 | 0.00 | 73 | 1008.7 |
| 20260507045517 | 58 | 315 | 4.3 | 9.6 | 0.00 | 0.02 | 0.00 | 73 | 1008.8 |
| 20260507045016 | 58 | 315 | 3.5 | 7.8 | 0.00 | 0.02 | 0.00 | 73 | 1008.8 |
| 20260507044515 | 58 | 315 | 4.3 | 11.3 | 0.00 | 0.02 | 0.00 | 73 | 1008.7 |
| 20260507044015 | 58 | 315 | 4.3 | 10.4 | 0.00 | 0.02 | 0.00 | 73 | 1008.8 |
| 20260507043516 | 58 | 315 | 4.3 | 8.7 | 0.00 | 0.02 | 0.00 | 72 | 1008.7 |
| 20260507043016 | 58 | 315 | 4.3 | 9.6 | 0.00 | 0.02 | 0.00 | 72 | 1008.6 |
| 20260507042515 | 58 | 315 | 4.3 | 8.7 | 0.00 | 0.02 | 0.00 | 72 | 1008.9 |
| 20260507042015 | 58 | 315 | 5.2 | 10.4 | 0.00 | 0.02 | 0.00 | 72 | 1009.0 |
| 20260507041515 | 58 | 315 | 4.3 | 9.6 | 0.00 | 0.02 | 0.00 | 72 | 1009.2 |
| 20260507041015 | 58 | 315 | 4.3 | 8.7 | 0.00 | 0.02 | 0.00 | 72 | 1009.3 |
| 20260507040535 | 59 | 315 | 5.2 | 10.4 | 0.00 | 0.02 | 0.00 | 73 | 1009.0 |
| 20260507040038 | 59 | 315 | 5.2 | 10.4 | 0.00 | 0.02 | 0.02 | 74 | 1008.9 |
| 20260507035516 | 59 | 338 | 5.2 | 13.9 | 0.00 | 0.02 | 0.02 | 75 | 1008.9 |
| 20260507035017 | 59 | 315 | 6.1 | 12.2 | 0.00 | 0.02 | 0.02 | 76 | 1008.8 |
| 20260507034517 | 59 | 315 | 6.1 | 13.0 | 0.00 | 0.02 | 0.02 | 79 | 1008.8 |
| 20260507034016 | 59 | 338 | 5.2 | 10.4 | 0.00 | 0.02 | 0.02 | 80 | 1008.9 |
| 20260507033516 | 60 | 315 | 3.5 | 9.6 | 0.00 | 0.02 | 0.02 | 82 | 1008.6 |
| 20260507033016 | 60 | 315 | 4.3 | 8.7 | 0.00 | 0.02 | 0.02 | 83 | 1008.6 |
| 20260507032516 | 60 | 293 | 3.5 | 10.4 | 0.00 | 0.02 | 0.02 | 83 | 1008.6 |
| 20260507032017 | 61 | 0 | 2.6 | 7.8 | 0.00 | 0.02 | 0.02 | 84 | 1008.6 |
| 20260507031516 | 61 | 338 | 3.5 | 8.7 | 0.00 | 0.02 | 0.02 | 85 | 1008.5 |
| 20260507031037 | 61 | 0 | 2.6 | 7.0 | 0.00 | 0.02 | 0.02 | 85 | 1008.3 |
| 20260507030516 | 62 | 0 | 3.5 | 8.7 | 0.00 | 0.02 | 0.02 | 86 | 1008.4 |
| 20260507030016 | 62 | 338 | 3.5 | 7.8 | 0.00 | 0.02 | 0.02 | 85 | 1008.4 |
| 20260507025516 | 62 | 0 | 2.6 | 8.7 | 0.00 | 0.02 | 0.02 | 85 | 1008.5 |